Lubbock, TX

1:14 PM CST on December 09, 2019 (GMT -0600)
Lubbock International

Weather History for KLBB - May, 2019

Change the Weather History Date:

Wednesday, May 8, 2019

  Actual Average Record
Temperature  
Mean Temperature 67 °F 68 °F  
Max Temperature 82 °F 82 °F 102 °F (1989)
Min Temperature 51 °F 53 °F 31 °F (1938)
Degree Days  
Heating Degree Days 0 2  
Month to date heating degree days 8 18  
Since 1 July heating degree days 3405 3355  
Cooling Degree Days 2 4  
Month to date cooling degree days 28 29  
Year to date cooling degree days 91 85  
Growing Degree Days 18 (Base 50)    
Moisture  
Dew Point 47 °F    
Average Humidity 57    
Maximum Humidity 93    
Minimum Humidity 21    
Precipitation  
Precipitation T in 0.06 in 1.97 in (2007)
Month to date precipitation 0.12 0.44  
Year to date precipitation 3.04 4.35  
Snow  
Snow 0.00 in 0.00 in 0.00 in (2002)
Month to date snowfall T 0.0  
Since 1 July snowfall 10.1 8.2  
Snow Depth 0.00 in    
Sea Level Pressure  
Sea Level Pressure 29.59 in    
Wind  
Wind Speed 13 mph (WNW)    
Max Wind Speed 33 mph    
Max Gust Speed 45 mph    
Visibility 10 miles    
Events      
T = Trace of Precipitation, MM = Missing Value Source: NWS Daily Summary

Daily Weather History Graph

Daily Weather History Graph

Search for Another Location

Airport or City:

Astronomy

May. 08, 2019 Rise Set
Actual Time 6:52 AM CDT 8:35 PM CDT
Civil Twilight 6:25 AM CDT 9:02 PM CDT
Nautical Twilight 5:52 AM CDT 9:35 PM CDT
Astronomical Twilight 5:18 AM CDT 10:09 PM CDT
Moon 9:55 AM CDT (5/8) No Moon Set
Length of Visible Light 14h 37m
Length of Day
13h 43m
Waxing Crescent, 16% of the Moon is Illuminated
May 8
Waxing Crescent
May 11
First Quarter
May 18
Full
May 26
Last Quarter
Jun 3
New

Hourly Weather History & Observations

Time (CDT) Temp. Dew Point Humidity Pressure Visibility Wind Dir Wind Speed Gust Speed Precip Events Conditions
12:53 AM 63.0 °F 61.0 °F 93% 29.62 in 10.0 mi SE 11.5 mph - N/A   Partly Cloudy
1:53 AM 64.0 °F 62.1 °F 93% 29.59 in 10.0 mi SSW 12.7 mph - N/A   Scattered Clouds
2:53 AM 64.0 °F 62.1 °F 93% 29.59 in 10.0 mi SSW 10.4 mph - N/A   Scattered Clouds
3:53 AM 64.9 °F 62.1 °F 90% 29.60 in 7.0 mi West 11.5 mph - N/A   Mostly Cloudy
4:17 AM 63.0 °F 61.0 °F 93% 29.72 in 7.0 mi WSW 11.5 mph - N/A   Scattered Clouds
4:53 AM 61.0 °F 57.9 °F 90% 29.60 in 10.0 mi West 10.4 mph - N/A   Scattered Clouds
5:53 AM 55.0 °F 46.9 °F 74% 29.59 in 10.0 mi WNW 11.5 mph - N/A   Scattered Clouds
6:53 AM 54.0 °F 44.1 °F 69% 29.60 in 10.0 mi West 11.5 mph - N/A   Scattered Clouds
7:53 AM 55.0 °F 44.1 °F 67% 29.62 in 10.0 mi West 10.4 mph - N/A   Partly Cloudy
8:53 AM 59.0 °F 44.1 °F 58% 29.63 in 10.0 mi WNW 16.1 mph - N/A   Partly Cloudy
9:53 AM 64.0 °F 43.0 °F 46% 29.62 in 10.0 mi NW 12.7 mph - N/A   Partly Cloudy
10:53 AM 66.9 °F 42.1 °F 40% 29.62 in 10.0 mi WNW 16.1 mph - N/A   Partly Cloudy
11:53 AM 72.0 °F 43.0 °F 35% 29.59 in 10.0 mi West 11.5 mph 21.9 mph N/A   Partly Cloudy
12:53 PM 73.9 °F 42.1 °F 32% 29.59 in 10.0 mi WNW 9.2 mph 21.9 mph N/A   Partly Cloudy
1:53 PM 75.9 °F 41.0 °F 29% 29.55 in 10.0 mi WNW 10.4 mph 29.9 mph N/A   Partly Cloudy
2:53 PM 78.1 °F 42.1 °F 28% 29.53 in 10.0 mi WNW 16.1 mph 24.2 mph N/A   Partly Cloudy
3:53 PM 80.1 °F 39.9 °F 24% 29.52 in 10.0 mi WNW 13.8 mph 19.6 mph N/A   Scattered Clouds
4:53 PM 81.0 °F 39.0 °F 22% 29.52 in 10.0 mi NNW 4.6 mph - N/A   Scattered Clouds
5:53 PM 80.1 °F 37.9 °F 22% 29.54 in 10.0 mi Variable 5.8 mph - N/A   Scattered Clouds
6:53 PM 80.1 °F 37.9 °F 22% 29.55 in 10.0 mi NNW 5.8 mph - N/A   Scattered Clouds
7:53 PM 75.9 °F 43.0 °F 31% 29.56 in 10.0 mi NE 11.5 mph - N/A   Scattered Clouds
8:53 PM 70.0 °F 46.9 °F 44% 29.59 in 10.0 mi NE 8.1 mph - N/A   Partly Cloudy
9:53 PM 66.9 °F 48.0 °F 51% 29.62 in 10.0 mi ENE 10.4 mph - N/A   Scattered Clouds
10:53 PM 64.9 °F 53.1 °F 65% 29.65 in 10.0 mi ENE 20.7 mph 31.1 mph N/A   Mostly Cloudy
11:53 PM 60.1 °F 54.0 °F 80% 29.67 in 10.0 mi ENE 24.2 mph 33.4 mph N/A   Scattered Clouds